Grand Junction, CO

8:34 PM MDT on October 14, 2019 (GMT -0600)
Walker

Weather History for KGJT - March, 2019

Change the Weather History Date:

Wednesday, March 6, 2019

  Actual Average Record
Temperature  
Mean Temperature 49 °F -  
Max Temperature 56 °F - 72 °F (1934)
Min Temperature 41 °F - 6 °F (1971)
Degree Days  
Heating Degree Days 16    
Month to date heating degree days 130  
Moisture  
Dew Point 39 °F    
Average Humidity 78    
Maximum Humidity 100    
Minimum Humidity 55    
Precipitation  
Precipitation 0.23 in - 1.02 in (1918)
Month to date precipitation 0.95  
Year to date precipitation 2.39  
Snow  
Snow 0.00 in - - ()
Month to date snowfall 0.0  
Snow Depth 0.00 in    
Sea Level Pressure  
Sea Level Pressure 29.84 in    
Wind  
Wind Speed 9 mph (ENE)    
Max Wind Speed 24 mph    
Max Gust Speed 33 mph    
Visibility 9 miles    
Events Rain    
T = Trace of Precipitation, MM = Missing Value Source: NWS Daily Summary

Daily Weather History Graph

Daily Weather History Graph

Search for Another Location

Airport or City:

Astronomy

Mar. 06, 2019 Rise Set
Actual Time 6:39 AM MST 6:11 PM MST
Civil Twilight 6:12 AM MST 6:38 PM MST
Nautical Twilight 5:41 AM MST 7:09 PM MST
Astronomical Twilight 5:10 AM MST 7:40 PM MST
Moon 7:00 AM MST (3/6) 6:22 PM MST (3/6)
Length of Visible Light 12h 25m
Length of Day
11h 32m
New Moon, 0% of the Moon is Illuminated
Mar 6
New Moon
Mar 14
First Quarter
Mar 20
Full
Mar 27
Last Quarter
Apr 5
New

Hourly Weather History & Observations

Time (MST) Temp. Windchill Dew Point Humidity Pressure Visibility Wind Dir Wind Speed Gust Speed Precip Events Conditions
12:53 AM 43.0 °F 38.8 °F 30.0 °F 60% 29.93 in 10.0 mi East 6.9 mph - N/A   Mostly Cloudy
1:53 AM 43.0 °F 36.8 °F 30.9 °F 62% 29.90 in 10.0 mi East 11.5 mph - N/A   Overcast
2:53 AM 44.1 °F 39.5 °F 30.9 °F 60% 29.89 in 10.0 mi East 8.1 mph - 0.00 in   Overcast
3:53 AM 43.0 °F 41.3 °F 32.0 °F 65% 29.89 in 10.0 mi West 3.5 mph - N/A   Overcast
4:53 AM 42.1 °F 39.2 °F 33.1 °F 70% 29.91 in 10.0 mi ENE 4.6 mph - N/A   Overcast
5:53 AM 45.0 °F 38.5 °F 32.0 °F 60% 29.89 in 10.0 mi East 13.8 mph - N/A   Overcast
6:53 AM 43.0 °F 41.3 °F 35.1 °F 74% 29.90 in 10.0 mi ENE 3.5 mph - N/A   Overcast
7:53 AM 46.9 °F - 35.1 °F 63% 29.89 in 10.0 mi NNW 4.6 mph - 0.00 in Rain Light Rain
8:53 AM 43.0 °F 41.3 °F 37.0 °F 80% 29.93 in 10.0 mi NNW 3.5 mph - 0.00 in Rain Light Rain
9:53 AM 45.0 °F 39.3 °F 39.9 °F 82% 29.90 in 10.0 mi North 11.5 mph - 0.02 in Rain Light Rain
10:53 AM 44.1 °F 42.5 °F 42.1 °F 93% 29.86 in 10.0 mi WSW 3.5 mph - 0.02 in   Overcast
11:53 AM 50.0 °F - 39.9 °F 68% 29.82 in 10.0 mi South 9.2 mph - N/A   Overcast
12:53 PM 51.1 °F - 41.0 °F 68% 29.78 in 10.0 mi SSE 17.3 mph - N/A   Overcast
1:53 PM 54.0 °F - 39.0 °F 57% 29.74 in 10.0 mi SSE 19.6 mph - N/A   Overcast
2:53 PM 55.0 °F - 39.0 °F 55% 29.69 in 10.0 mi SSE 20.7 mph 33.4 mph N/A   Overcast
3:53 PM 55.9 °F - 39.9 °F 55% 29.69 in 10.0 mi SSE 15.0 mph - N/A   Overcast
4:28 PM 48.0 °F - 46.0 °F 93% 29.82 in 10.0 mi WNW 16.1 mph 21.9 mph N/A   Overcast
4:53 PM 46.9 °F - 45.0 °F 93% 29.78 in 7.0 mi WNW 10.4 mph - 0.01 in Rain Light Rain
5:53 PM 46.9 °F - 43.0 °F 86% 29.76 in 10.0 mi North 12.7 mph - 0.00 in Rain Light Rain
6:53 PM 46.0 °F 42.5 °F 44.1 °F 93% 29.80 in 4.0 mi SSE 6.9 mph - 0.10 in Rain Heavy Rain
7:21 PM 45.0 °F - 44.1 °F 97% 29.87 in 6.0 mi Calm Calm - 0.04 in Rain Light Rain
7:30 PM 45.0 °F 42.6 °F 45.0 °F 100% 29.85 in 4.0 mi North 4.6 mph - 0.06 in Rain Rain
7:53 PM 45.0 °F 41.2 °F 43.0 °F 93% 29.80 in 10.0 mi ENE 6.9 mph - 0.08 in   Overcast
8:53 PM 44.1 °F 40.1 °F 42.1 °F 93% 29.81 in 10.0 mi ENE 6.9 mph - 0.00 in   Scattered Clouds
9:53 PM 43.0 °F 39.5 °F 42.1 °F 97% 29.83 in 10.0 mi NNW 5.8 mph - N/A   Overcast
10:53 PM 45.0 °F - 41.0 °F 86% 29.83 in 10.0 mi Calm Calm - 0.00 in   Overcast
11:53 PM 44.1 °F 42.5 °F 41.0 °F 89% 29.81 in 10.0 mi Variable 3.5 mph - N/A   Mostly Cloudy